This is the latest recevied weather packets stored in our database for station/object W0VI. If no packets are shown the sender has not sent any weather packets the latest 10 day(s).
| Time | Temp. | Humidity | Pressure | Rain* | Wind** | Luminosity | Snow |
|---|---|---|---|---|---|---|---|
| 1777637002 | 3.33° C | 69% | 1018.7 hPa | 0 mm | - | 41 W/m² | - |
| 1777636697 | 3.33° C | 69% | 1018.3 hPa | 0 mm | - | 35 W/m² | - |
| 1777636394 | 3.33° C | 70% | 1018.6 hPa | 0 mm | - | 34 W/m² | - |
| 1777636089 | 3.33° C | 70% | 1018.4 hPa | 0 mm | - | 29 W/m² | - |
| 1777635785 | 3.33° C | 70% | 1018.4 hPa | 0 mm | - | 24 W/m² | - |
| 1777635482 | 3.33° C | 70% | 1018.3 hPa | 0 mm | - | 19 W/m² | - |
| 1777635178 | 3.33° C | 69% | 1018.4 hPa | 0 mm | - | 14 W/m² | - |
| 1777634874 | 2.78° C | 70% | 1018.4 hPa | 0 mm | - | 10 W/m² | - |
| 1777634572 | 2.78° C | 69% | 1018.1 hPa | 0 mm | - | 8 W/m² | - |
| 1777634269 | 2.78° C | 70% | 1018.3 hPa | 0 mm | - | 6 W/m² | - |
| 1777633965 | 2.78° C | 70% | 1018.3 hPa | 0 mm | - | 4 W/m² | - |
| 1777633663 | 2.78° C | 69% | 1018.1 hPa | 0 mm | - | 2 W/m² | - |
| 1777633361 | 3.33° C | 69% | 1018.3 hPa | 0 mm | - | 0 W/m² | - |
| 1777633058 | 3.33° C | 69% | 1018 hPa | 0 mm | - | 0 W/m² | - |
| 1777632754 | 3.33° C | 68% | 1018.1 hPa | 0 mm | - | 0 W/m² | - |
| 1777632450 | 3.33° C | 68% | 1018.2 hPa | 0 mm | - | 0 W/m² | - |
| 1777632148 | 3.33° C | 68% | 1018.1 hPa | 0 mm | - | 0 W/m² | - |
| 1777631845 | 3.33° C | 67% | 1018.1 hPa | 0 mm | - | 0 W/m² | - |
| 1777631544 | 3.33° C | 67% | 1018 hPa | 0 mm | - | 0 W/m² | - |
| 1777631240 | 3.33° C | 66% | 1018.1 hPa | 0 mm | - | 0 W/m² | - |
| 1777630937 | 3.33° C | 66% | 1018.2 hPa | 0 mm | - | 0 W/m² | - |
| 1777630632 | 3.33° C | 65% | 1018.1 hPa | 0 mm | - | 0 W/m² | - |
| 1777630330 | 3.89° C | 65% | 1018.1 hPa | 0 mm | - | 0 W/m² | - |
| 1777630028 | 3.89° C | 65% | 1018.1 hPa | 0 mm | - | 0 W/m² | - |
| 1777629725 | 3.89° C | 65% | 1018 hPa | 0 mm | - | 0 W/m² | - |
* Rain latest hour (hover to see other rain measurements)
** Current wind speed in m/s (hover to see current wind gust speed)